W8WLC-15 Weather Reports


time (UTC)temp
F
wind
direction
speed
knots
gust
knots
rain 1hr
in
rain 24hr
in
rain mn
in
humidity
%
barometer
mb
20211026185335 47 359 1.7 5.2 0.00 0.00 0.00 73 1016.2
20211026184335 46 344 2.6 12.2 0.00 0.00 0.00 75 1016.2
20211026183335 46 352 1.7 13.0 0.00 0.00 0.00 75 1016.1
20211026182335 46 339 2.6 7.8 0.00 0.00 0.00 75 1016.1
20211026181335 46 341 2.6 13.0 0.00 0.00 0.00 75 1016.3
20211026180335 46 348 2.6 12.2 0.00 0.00 0.00 75 1016.3
20211026175335 45 342 1.7 7.8 0.00 0.00 0.00 77 1016.5
20211026174335 44 335 2.6 10.4 0.00 0.00 0.00 78 1016.6
20211026173335 44 327 4.3 10.4 0.00 0.00 0.00 80 1016.9
20211026172334 43 339 2.6 11.3 0.00 0.00 0.00 80 1017.0
20211026171335 44 336 3.5 7.8 0.00 0.00 0.00 78 1017.2
20211026170335 44 10 0.9 4.3 0.00 0.00 0.00 79 1017.4
20211026165335 43 350 1.7 8.7 0.00 0.00 0.00 79 1017.5
20211026164335 43 350 1.7 5.2 0.00 0.00 0.00 79 1017.7
20211026163334 43 345 2.6 4.3 0.00 0.00 0.00 77 1017.8
20211026162335 42 21 0.9 2.6 0.00 0.00 0.00 81 1017.9
20211026161335 41 0 0.0 1.7 0.00 0.00 0.00 82 1018.0
20211026160334 41 0 0.0 1.7 0.00 0.00 0.00 82 1017.9
20211026155335 41 29 0.9 2.6 0.00 0.00 0.00 81 1017.9
20211026154335 41 0 0.0 2.6 0.00 0.00 0.00 82 1017.9
20211026153335 41 0 0.0 3.5 0.00 0.00 0.00 83 1018.0
20211026152335 41 0 0.0 3.5 0.00 0.00 0.00 84 1017.8
20211026151335 41 349 1.7 4.3 0.00 0.00 0.00 84 1017.9
20211026150335 40 356 0.9 2.6 0.00 0.00 0.00 83 1017.9
20211026145335 40 357 0.9 5.2 0.00 0.00 0.00 83 1017.8
20211026144335 40 20 0.9 2.6 0.00 0.00 0.00 83 1017.9
20211026143335 40 351 0.9 2.6 0.00 0.00 0.00 83 1018.0
20211026142334 40 0 0.0 2.6 0.00 0.00 0.00 84 1017.9
20211026141335 40 29 0.9 2.6 0.00 0.00 0.00 84 1018.0
20211026140335 40 24 0.9 2.6 0.00 0.00 0.00 84 1018.0
20211026135335 40 0 0.0 2.6 0.00 0.00 0.00 84 1018.1
20211026134335 40 0 0.0 2.6 0.00 0.00 0.00 84 1018.1
20211026133335 40 24 0.9 3.5 0.00 0.00 0.00 83 1018.1
20211026132335 39 4 1.7 3.5 0.00 0.00 0.00 83 1018.2
20211026131335 39 345 0.9 3.5 0.00 0.00 0.00 84 1018.2
20211026130335 39 347 1.7 4.3 0.00 0.00 0.00 83 1018.2
20211026125334 39 357 0.9 4.3 0.00 0.00 0.00 83 1018.1
20211026124335 39 357 0.9 2.6 0.00 0.00 0.00 83 1018.1
20211026123335 39 6 0.9 2.6 0.00 0.00 0.00 83 1018.0
20211026122335 39 355 0.9 2.6 0.00 0.00 0.00 83 1017.8
20211026121335 39 342 0.9 3.5 0.00 0.00 0.00 82 1017.8
20211026120335 39 0 0.0 3.5 0.00 0.00 0.00 81 1017.8
20211026115335 39 346 2.6 7.0 0.00 0.00 0.00 81 1018.0
20211026114335 40 350 1.7 7.8 0.00 0.00 0.00 81 1017.9
20211026113335 40 346 1.7 4.3 0.00 0.00 0.00 80 1017.8
20211026112335 40 347 0.9 4.3 0.00 0.00 0.00 81 1017.7
20211026111335 40 0 0.0 2.6 0.00 0.00 0.00 81 1017.8
20211026110334 39 0 0.0 3.5 0.00 0.00 0.00 80 1017.7
20211026105334 39 0 0.0 3.5 0.00 0.00 0.00 80 1017.6
20211026104334 39 21 0.9 2.6 0.00 0.00 0.00 80 1017.7
20211026103334 39 0 0.0 1.7 0.00 0.00 0.00 81 1017.7
20211026102335 39 0 0.0 2.6 0.00 0.00 0.00 80 1017.7
20211026101335 40 0 0.0 2.6 0.00 0.00 0.00 81 1017.6
20211026100334 39 41 0.9 3.5 0.00 0.00 0.00 81 1017.5
20211026095334 39 0 0.0 2.6 0.00 0.00 0.00 82 1017.4
20211026094335 40 0 0.0 1.7 0.00 0.00 0.00 82 1017.3
20211026093335 40 0 0.0 2.6 0.00 0.00 0.00 82 1017.3
20211026092335 40 0 0.0 2.6 0.00 0.00 0.00 81 1017.2
20211026091335 40 0 0.0 3.5 0.00 0.00 0.00 81 1017.2
20211026090335 40 0 0.0 3.5 0.00 0.00 0.00 81 1017.2
20211026085334 40 0 0.0 1.7 0.00 0.00 0.00 81 1017.2
20211026084335 40 0 0.0 1.7 0.00 0.00 0.00 81 1017.2
20211026083334 40 0 0.0 2.6 0.00 0.00 0.00 81 1017.1
20211026082334 40 18 0.9 2.6 0.00 0.00 0.00 82 1017.1
20211026081334 40 0 0.0 0.9 0.00 0.00 0.00 83 1017.1
20211026080335 40 17 0.9 2.6 0.00 0.00 0.00 83 1017.1
20211026075335 40 0 0.0 1.7 0.00 0.00 0.00 83 1017.1
20211026074335 40 0 0.0 2.6 0.00 0.00 0.00 81 1017.2
20211026073334 40 0 0.0 1.7 0.00 0.00 0.00 81 1017.4
20211026072334 40 0 0.0 2.6 0.00 0.00 0.00 80 1017.4
20211026071334 40 0 0.0 3.5 0.00 0.00 0.00 81 1017.5
20211026070334 40 63 0.9 3.5 0.00 0.00 0.00 81 1017.5
20211026065334 40 70 0.9 2.6 0.00 0.00 0.00 82 1017.6
20211026064334 40 76 0.9 2.6 0.00 0.00 0.00 82 1017.7
20211026063334 40 0 0.0 2.6 0.00 0.00 0.00 82 1017.6
20211026062335 41 64 0.9 3.5 0.00 0.00 0.00 82 1017.6
20211026061334 41 65 1.7 4.3 0.00 0.00 0.00 81 1017.5
20211026060334 41 65 0.9 3.5 0.00 0.00 0.00 82 1017.6
20211026055334 41 73 0.9 4.3 0.00 0.00 0.00 82 1017.6
20211026054334 41 64 0.9 5.2 0.00 0.00 0.00 82 1017.4
20211026053334 41 76 1.7 3.5 0.00 0.00 0.00 82 1017.5
20211026052334 41 71 1.7 4.3 0.00 0.00 0.00 83 1017.4
20211026051334 41 72 1.7 3.5 0.00 0.00 0.00 84 1017.4
20211026050334 41 73 0.9 4.3 0.00 0.00 0.00 85 1017.5
20211026045335 42 61 0.9 2.6 0.00 0.00 0.00 84 1017.4
20211026044334 42 0 0.0 3.5 0.00 0.00 0.00 84 1017.6
20211026043334 42 63 0.9 3.5 0.00 0.00 0.00 84 1017.6
20211026042334 42 64 0.9 3.5 0.00 0.00 0.00 85 1017.6
20211026041334 42 0 0.0 2.6 0.00 0.00 0.00 84 1017.6
20211026040334 42 0 0.0 4.3 0.00 0.00 0.00 84 1017.6
20211026035334 42 50 0.9 4.3 0.00 0.00 0.00 84 1017.5
20211026034334 43 55 1.7 8.7 0.00 0.00 0.00 83 1017.6
20211026033334 43 59 1.7 5.2 0.00 0.00 0.00 84 1017.7
20211026032334 43 65 1.7 3.5 0.00 0.00 0.00 84 1017.8
20211026031334 43 0 0.0 3.5 0.00 0.00 0.00 83 1017.9
20211026030334 43 66 1.7 5.2 0.00 0.00 0.00 82 1017.9
20211026025334 43 70 0.9 4.3 0.00 0.00 0.00 82 1017.9
20211026024334 44 75 1.7 6.1 0.00 0.00 0.00 81 1018.0
20211026023334 44 65 0.9 2.6 0.00 0.00 0.00 82 1017.9
20211026022334 44 63 1.7 4.3 0.00 0.00 0.00 81 1017.8
20211026021334 44 64 1.7 4.3 0.00 0.00 0.00 81 1017.9
20211026020334 44 61 0.9 2.6 0.00 0.00 0.00 81 1017.8
20211026015334 45 96 1.7 6.1 0.00 0.00 0.00 80 1017.7
20211026014334 45 61 1.7 6.1 0.00 0.00 0.00 79 1017.6
20211026013335 45 64 0.9 6.1 0.00 0.00 0.00 79 1017.6
20211026012334 45 75 2.6 7.0 0.00 0.00 0.00 78 1017.6
20211026011334 45 75 1.7 4.3 0.00 0.00 0.00 78 1017.5
20211026010334 45 71 1.7 4.3 0.00 0.00 0.00 78 1017.5
20211026005334 46 72 0.9 4.3 0.00 0.00 0.00 79 1017.4
20211026004335 46 67 0.9 4.3 0.00 0.00 0.00 79 1017.4
20211026003334 46 73 0.9 2.6 0.00 0.00 0.00 79 1017.4
20211026002334 46 61 2.6 6.1 0.00 0.00 0.00 79 1017.3
20211026001334 46 65 1.7 4.3 0.00 0.00 0.00 78 1017.3
20211026000334 46 70 0.9 5.2 0.00 0.00 0.00 80 1017.3
20211025235334 46 68 1.7 5.2 0.00 0.00 0.00 79 1017.3
20211025234334 46 64 0.9 4.3 0.00 0.00 0.00 80 1017.3
20211025233334 46 70 1.7 4.3 0.00 0.00 0.00 79 1017.1
20211025232334 46 70 1.7 5.2 0.00 0.00 0.00 79 1017.1
20211025231334 46 72 0.9 4.3 0.00 0.00 0.00 80 1017.0
20211025230334 46 75 1.7 7.0 0.00 0.00 0.00 80 1016.9
20211025225334 46 64 1.7 4.3 0.00 0.00 0.00 80 1016.9
20211025224334 46 71 0.9 6.1 0.00 0.00 0.00 80 1016.8
20211025223334 46 59 0.9 5.2 0.00 0.00 0.00 80 1016.7
20211025222334 46 68 0.9 6.1 0.00 0.00 0.00 81 1016.7
20211025221334 46 76 1.7 3.5 0.00 0.00 0.00 80 1016.6
20211025220334 47 77 1.7 5.2 0.00 0.00 0.00 80 1016.4
20211025215334 47 75 1.7 6.1 0.00 0.00 0.00 80 1016.4
20211025214334 47 81 0.9 7.8 0.00 0.00 0.00 81 1016.5
20211025213334 47 77 2.6 7.8 0.00 0.00 0.00 80 1016.4
20211025212334 47 80 2.6 7.0 0.00 0.00 0.00 81 1016.2
20211025211335 47 77 2.6 7.0 0.00 0.00 0.00 81 1016.0
20211025210334 47 80 2.6 7.8 0.00 0.00 0.00 81 1015.8
20211025205334 47 77 1.7 7.0 0.00 0.00 0.00 81 1015.8
20211025204334 47 70 2.6 7.0 0.00 0.00 0.00 81 1015.6
20211025203334 47 74 3.5 9.6 0.00 0.00 0.00 80 1015.5
20211025202334 47 71 2.6 7.0 0.00 0.01 0.00 80 1015.4
20211025201334 47 77 2.6 7.0 0.00 0.01 0.00 80 1015.3
20211025200334 47 78 2.6 7.8 0.00 0.03 0.00 81 1015.3
20211025195334 47 73 1.7 7.0 0.00 0.05 0.00 80 1015.4
20211025194334 47 85 2.6 5.2 0.00 0.05 0.00 80 1015.3
20211025193334 47 78 1.7 7.0 0.00 0.05 0.00 80 1015.4
20211025192334 47 76 2.6 8.7 0.00 0.05 0.00 80 1015.4
20211025191334 47 83 4.3 8.7 0.00 0.05 0.00 81 1015.4
20211025190334 47 75 2.6 7.8 0.00 0.05 0.00 81 1015.4